When you browse on this site, cookies collect data to enhance your experience and personalize the content and advertising you see.
Visit our Privacy Policy to learn more. By continuing to use the site, you agree to this use of cookies and data.
  • In Romania
  • List of Countries
  • For 7 days
  • Water Temperature
  • Satellite Maps
  • Weather Map
  • Weather Widgets
  • user-avatar
    Login

    Hourly Weather Klokovo

    Today, 21 January, Monday

    Time Temperature Precipitation Wind Pressure Humidity
    00:00 -12°C° 0 mm 3 mps 740 mmHg 91%
    01:00 -13°C° 0 mm 2 mps 740 mmHg 93%
    02:00 -14°C° 0 mm 2 mps 740 mmHg 95%
    03:00 -14°C° 0 mm 2 mps 740 mmHg 95%
    04:00 -14°C° 0 mm 2 mps 741 mmHg 95%
    05:00 -14°C° 0 mm 2 mps 741 mmHg 95%
    06:00 -15°C° 0 mm 2 mps 741 mmHg 95%
    07:00 -15°C° 0 mm 2 mps 741 mmHg 95%
    08:00 -15°C° 0 mm 2 mps 741 mmHg 95%
    09:00 -15°C° 0 mm 3 mps 741 mmHg 93%
    10:00 -14°C° 0 mm 3 mps 741 mmHg 90%
    11:00 -13°C° 0 mm 3 mps 742 mmHg 88%
    12:00 -13°C° 0 mm 3 mps 742 mmHg 87%
    13:00 -13°C° 0 mm 3 mps 742 mmHg 85%
    14:00 -13°C° 0 mm 3 mps 742 mmHg 84%
    15:00 -14°C° 0 mm 3 mps 743 mmHg 86%
    16:00 -16°C° 0 mm 3 mps 743 mmHg 89%
    17:00 -16°C° 0 mm 2 mps 743 mmHg 92%
    18:00 -17°C° 0 mm 2 mps 743 mmHg 92%
    19:00 -19°C° 0 mm 3 mps 744 mmHg 93%
    20:00 -19°C° 0 mm 3 mps 744 mmHg 94%
    21:00 -21°C° 0 mm 3 mps 744 mmHg 94%
    22:00 -21°C° 0 mm 3 mps 744 mmHg 94%
    23:00 -22°C° 0 mm 3 mps 745 mmHg 94%

    Tomorrow, 22 January, Tuesday

    Time Temperature Precipitation Wind Pressure Humidity
    00:00 -21°C° 0 mm 3 mps 745 mmHg 94%
    01:00 -21°C° 0 mm 3 mps 745 mmHg 93%
    02:00 -21°C° 0 mm 3 mps 745 mmHg 92%
    03:00 -21°C° 0 mm 3 mps 746 mmHg 93%
    04:00 -21°C° 0 mm 3 mps 746 mmHg 94%
    05:00 -22°C° 0 mm 3 mps 746 mmHg 94%
    06:00 -22°C° 0 mm 3 mps 747 mmHg 95%
    07:00 -22°C° 0 mm 3 mps 747 mmHg 95%
    08:00 -22°C° 0 mm 3 mps 747 mmHg 96%
    09:00 -21°C° 0 mm 3 mps 748 mmHg 95%
    10:00 -19°C° 0 mm 3 mps 748 mmHg 94%
    11:00 -17°C° 0 mm 2 mps 748 mmHg 93%
    12:00 -17°C° 0 mm 2 mps 748 mmHg 93%
    13:00 -16°C° 0 mm 2 mps 748 mmHg 93%
    14:00 -16°C° 0 mm 2 mps 748 mmHg 93%
    15:00 -17°C° 0 mm 2 mps 748 mmHg 94%
    16:00 -18°C° 0 mm 2 mps 748 mmHg 95%
    17:00 -19°C° 0 mm 2 mps 749 mmHg 96%
    18:00 -20°C° 0 mm 2 mps 748 mmHg 96%
    19:00 -20°C° 0 mm 2 mps 748 mmHg 95%
    20:00 -20°C° 0 mm 2 mps 748 mmHg 95%
    21:00 -21°C° 0 mm 2 mps 748 mmHg 95%
    22:00 -21°C° 0 mm 2 mps 748 mmHg 94%
    23:00 -21°C° 0 mm 2 mps 748 mmHg 94%

    Day after tomorrow, 23 January, Wednesday

    Time Temperature Precipitation Wind Pressure Humidity
    00:00 -21°C° 0 mm 2 mps 748 mmHg 95%
    01:00 -23°C° 0 mm 2 mps 748 mmHg 95%
    02:00 -23°C° 0 mm 2 mps 748 mmHg 95%
    03:00 -23°C° 0 mm 2 mps 748 mmHg 96%
    04:00 -23°C° 0 mm 2 mps 748 mmHg 96%
    05:00 -23°C° 0 mm 2 mps 748 mmHg 97%
    06:00 -23°C° 0 mm 2 mps 748 mmHg 97%
    07:00 -23°C° 0 mm 2 mps 748 mmHg 98%
    08:00 -23°C° 0 mm 2 mps 748 mmHg 98%
    09:00 -19°C° 0 mm 2 mps 748 mmHg 97%
    10:00 -17°C° 0 mm 2 mps 748 mmHg 96%
    11:00 -16°C° 0 mm 3 mps 748 mmHg 94%
    12:00 -14°C° 0 mm 3 mps 748 mmHg 93%
    13:00 -13°C° 0 mm 3 mps 747 mmHg 91%
    14:00 -10°C° 0 mm 3 mps 747 mmHg 90%
    15:00 -10°C° 0 mm 3 mps 747 mmHg 91%
    16:00 -10°C° 0 mm 3 mps 747 mmHg 92%
    17:00 -10°C° 0 mm 3 mps 747 mmHg 92%
    18:00 -10°C° 0 mm 3 mps 747 mmHg 93%
    19:00 -10°C° 0 mm 3 mps 747 mmHg 93%
    20:00 -10°C° 0 mm 3 mps 747 mmHg 93%
    21:00 -12°C° 0 mm 3 mps 747 mmHg 93%
    22:00 -13°C° 0 mm 3 mps 747 mmHg 92%
    23:00 -14°C° 0 mm 3 mps 746 mmHg 92%

    24 January, Thursday

    Time Temperature Precipitation Wind Pressure Humidity
    00:00 -15°C° 0 mm 3 mps 746 mmHg 91%
    01:00 -15°C° 0 mm 3 mps 746 mmHg 90%
    02:00 -16°C° 0 mm 3 mps 746 mmHg 89%
    03:00 -16°C° 0 mm 3 mps 746 mmHg 88%
    04:00 -16°C° 0 mm 3 mps 746 mmHg 88%
    05:00 -17°C° 0 mm 3 mps 746 mmHg 87%
    06:00 -15°C° 0.1 mm 2 mps 746 mmHg 88%
    07:00 -15°C° 0.1 mm 2 mps 746 mmHg 89%
    08:00 -15°C° 0.1 mm 2 mps 746 mmHg 90%
    09:00 -14°C° 0.1 mm 2 mps 746 mmHg 91%
    10:00 -13°C° 0.1 mm 2 mps 746 mmHg 92%
    11:00 -12°C° 0.1 mm 2 mps 747 mmHg 93%
    12:00 -12°C° 0 mm 2 mps 747 mmHg 92%
    13:00 -12°C° 0 mm 3 mps 747 mmHg 91%
    14:00 -10°C° 0 mm 3 mps 748 mmHg 90%
    15:00 -13°C° 0 mm 3 mps 748 mmHg 91%
    16:00 -13°C° 0 mm 2 mps 749 mmHg 92%
    17:00 -14°C° 0 mm 2 mps 749 mmHg 93%
    18:00 -16°C° 0 mm 2 mps 750 mmHg 94%
    19:00 -18°C° 0 mm 2 mps 750 mmHg 96%
    20:00 -20°C° 0 mm 2 mps 751 mmHg 97%
    21:00 -21°C° 0 mm 2 mps 751 mmHg 97%
    22:00 -19°C° 0 mm 1 mps 752 mmHg 97%
    23:00 -20°C° 0 mm 1 mps 753 mmHg 97%

    25 January, Friday

    Time Temperature Precipitation Wind Pressure Humidity
    00:00 -21°C° 0 mm 1 mps 753 mmHg 97%
    01:00 -21°C° 0 mm 1 mps 753 mmHg 96%
    02:00 -21°C° 0 mm 1 mps 754 mmHg 95%
    03:00 -21°C° 0 mm 1 mps 754 mmHg 95%
    04:00 -22°C° 0 mm 0 mps 754 mmHg 94%
    05:00 -22°C° 0 mm 0 mps 754 mmHg 94%
    06:00 -22°C° 0 mm 0 mps 754 mmHg 93%
    07:00 -22°C° 0 mm 0 mps 755 mmHg 92%
    08:00 -22°C° 0 mm 0 mps 755 mmHg 92%
    09:00 -20°C° 0 mm 1 mps 755 mmHg 90%
    10:00 -18°C° 0 mm 1 mps 755 mmHg 89%
    11:00 -17°C° 0 mm 1 mps 755 mmHg 88%
    12:00 -16°C° 0 mm 1 mps 755 mmHg 89%
    13:00 -16°C° 0 mm 1 mps 755 mmHg 89%
    14:00 -15°C° 0 mm 1 mps 755 mmHg 90%
    15:00 -16°C° 0 mm 1 mps 755 mmHg 90%
    16:00 -17°C° 0 mm 1 mps 754 mmHg 90%
    17:00 -18°C° 0 mm 1 mps 754 mmHg 91%
    18:00 -18°C° 0 mm 1 mps 754 mmHg 90%
    19:00 -18°C° 0 mm 1 mps 754 mmHg 90%
    20:00 -18°C° 0 mm 1 mps 754 mmHg 90%
    21:00 -18°C° 0 mm 1 mps 754 mmHg 90%
    22:00 -20°C° 0 mm 2 mps 754 mmHg 89%
    23:00 -20°C° 0 mm 2 mps 754 mmHg 89%

    26 January, Saturday

    Time Temperature Precipitation Wind Pressure Humidity
    00:00 -21°C° 0 mm 2 mps 753 mmHg 89%
    01:00 -21°C° 0 mm 2 mps 753 mmHg 90%
    02:00 -21°C° 0 mm 2 mps 753 mmHg 90%
    03:00 -21°C° 0 mm 2 mps 752 mmHg 90%
    04:00 -21°C° 0 mm 2 mps 752 mmHg 90%
    05:00 -20°C° 0 mm 1 mps 751 mmHg 90%
    06:00 -20°C° 0 mm 1 mps 751 mmHg 90%
    07:00 -21°C° 0 mm 1 mps 751 mmHg 91%
    08:00 -21°C° 0 mm 1 mps 751 mmHg 91%
    09:00 -23°C° 0 mm 2 mps 751 mmHg 90%
    10:00 -20°C° 0 mm 2 mps 751 mmHg 89%
    11:00 -19°C° 0 mm 2 mps 750 mmHg 87%
    12:00 -18°C° 0 mm 2 mps 750 mmHg 88%
    13:00 -18°C° 0 mm 2 mps 749 mmHg 89%
    14:00 -15°C° 0 mm 1 mps 749 mmHg 90%
    15:00 -19°C° 0 mm 2 mps 749 mmHg 92%
    16:00 -20°C° 0 mm 2 mps 748 mmHg 94%
    17:00 -21°C° 0 mm 2 mps 748 mmHg 95%
    18:00 -23°C° 0 mm 2 mps 748 mmHg 95%
    19:00 -23°C° 0 mm 2 mps 748 mmHg 96%
    20:00 -23°C° 0 mm 2 mps 748 mmHg 96%
    21:00 -23°C° 0 mm 2 mps 747 mmHg 95%
    22:00 -24°C° 0 mm 2 mps 747 mmHg 94%
    23:00 -24°C° 0 mm 2 mps 747 mmHg 93%
    Show more